Morrisville, VT

5:57 PM EST on February 21, 2017 (GMT -0500)
Morrisville Stowe State

Weather History for KMVL - August, 2013

Change the Weather History Date:

Monday, August 5, 2013

  Actual Average Record
Temperature  
Mean Temperature 59 °F 67 °F  
Max Temperature 69 °F 79 °F 87 °F (2001)
Min Temperature 48 °F 55 °F 44 °F (2007)
Degree Days  
Heating Degree Days 6 1  
Month to date heating degree days 8 5  
Since 1 June heating degree days 151 158  
Since 1 July heating degree days 21 35  
Cooling Degree Days 0 3  
Month to date cooling degree days 5 15  
Year to date cooling degree days 287 183  
Since 1 June cooling degree days 267 175  
Growing Degree Days 9 (Base 50)    
Moisture  
Dew Point 45 °F    
Average Humidity 61    
Maximum Humidity 93    
Minimum Humidity 29    
Precipitation  
Precipitation 0.00 in 0.14 in 0.56 in (2012)
Month to date precipitation 1.21 0.75  
Year to date precipitation 28.44 20.48  
Sea Level Pressure  
Sea Level Pressure 30.02 in    
Wind  
Wind Speed 6 mph (NW)    
Max Wind Speed 17 mph    
Max Gust Speed 26 mph    
Visibility 10 miles    
Events      
T = Trace of Precipitation, MM = Missing Value Source: NWS Daily Summary

Daily Weather History Graph

Daily Weather History Graph

Search for Another Location

Airport or City:

Trip Planner

Search our weather history database for the weather conditions in past years. The results will help you decide how hot, cold, wet, or windy it might be!

Date:

Astronomy

Aug. 05, 2013 Rise Set
Actual Time 5:41 AM EDT 8:10 PM EDT
Civil Twilight 5:09 AM EDT 8:42 PM EDT
Nautical Twilight 4:27 AM EDT 9:23 PM EDT
Astronomical Twilight 3:41 AM EDT 10:09 PM EDT
Moon 4:34 AM EDT (8/5) 7:07 PM EDT (8/5)
Length of Visible Light 15h 33m
Length of Day
14h 28m
Waning Crescent, 1% of the Moon is Illuminated
Aug 5
Waning Crescent
Aug 6
New
Aug 14
First Quarter
Aug 20
Full
Aug 28
Last Quarter

Hourly Weather History & Observations

Time (EDT) Temp. Dew Point Humidity Pressure Visibility Wind Dir Wind Speed Gust Speed Precip Events Conditions
12:54 AM 59.0 °F 52.0 °F 78% 29.95 in 10.0 mi NNW 5.8 mph - N/A   Overcast
1:54 AM 57.9 °F 53.1 °F 84% 29.95 in 10.0 mi NNW 4.6 mph - 0.00 in   Overcast
2:54 AM 57.0 °F 50.0 °F 77% 29.96 in 10.0 mi NW 11.5 mph - 0.00 in   Mostly Cloudy
3:54 AM 55.9 °F 48.0 °F 75% 29.97 in 10.0 mi NW 8.1 mph - N/A   Overcast
4:54 AM 54.0 °F 45.0 °F 72% 29.98 in 10.0 mi NW 5.8 mph - N/A   Partly Cloudy
5:54 AM 52.0 °F 43.0 °F 71% 30.00 in 10.0 mi WNW 3.5 mph - N/A   Clear
6:54 AM 50.0 °F 45.0 °F 83% 30.02 in 10.0 mi Calm Calm - N/A   Clear
7:54 AM 57.9 °F 44.1 °F 60% 30.03 in 10.0 mi NW 4.6 mph - N/A   Partly Cloudy
8:54 AM 59.0 °F 43.0 °F 55% 30.03 in 10.0 mi NNW 9.2 mph - N/A   Clear
9:54 AM 61.0 °F 44.1 °F 54% 30.03 in 10.0 mi Variable 5.8 mph - N/A   Partly Cloudy
10:54 AM 62.1 °F 39.9 °F 44% 30.04 in 10.0 mi NW 6.9 mph 16.1 mph N/A   Clear
11:54 AM 64.0 °F 41.0 °F 43% 30.03 in 10.0 mi WNW 8.1 mph 17.3 mph N/A   Clear
12:54 PM 66.0 °F 37.9 °F 36% 30.03 in 10.0 mi NW 8.1 mph - N/A   Clear
1:54 PM 66.0 °F 34.0 °F 30% 30.03 in 10.0 mi NW 11.5 mph 18.4 mph N/A   Clear
2:54 PM 68.0 °F 39.9 °F 36% 30.03 in 10.0 mi North 12.7 mph 26.5 mph N/A   Clear
3:54 PM 68.0 °F 42.1 °F 39% 30.03 in 10.0 mi North 15.0 mph 21.9 mph N/A   Clear
4:54 PM 68.0 °F 43.0 °F 40% 30.03 in 10.0 mi NNW 11.5 mph 17.3 mph N/A   Clear
5:54 PM 66.0 °F 43.0 °F 43% 30.02 in 10.0 mi NW 6.9 mph - N/A   Scattered Clouds
6:54 PM 66.0 °F 46.0 °F 48% 30.03 in 10.0 mi Calm Calm - N/A   Clear
7:54 PM 61.0 °F 48.9 °F 64% 30.04 in 10.0 mi Calm Calm - N/A   Partly Cloudy
8:54 PM 57.0 °F 48.9 °F 74% 30.06 in 10.0 mi Calm Calm - N/A   Clear
9:54 PM 54.0 °F 48.9 °F 83% 30.08 in 10.0 mi Calm Calm - N/A   Clear
10:54 PM 52.0 °F 48.0 °F 86% 30.08 in 10.0 mi Calm Calm - N/A   Clear
11:54 PM 50.0 °F 48.0 °F 93% 30.08 in 10.0 mi Calm Calm - N/A   Clear